Погода в Далате

Вьетнам     11°57′49″N   108°27′31″E
темп.,
°C
ветер,
м/с
пор.,
м/с
влажн.,
%
обл.,
%
осадки,
мм/ч
давл.,
гПа
погр.,
м
18 мая, вт
вт1801:00+16вюв0098100 0.1 101314
04:00+16всв1096100 0.0 101213
07:00+19в1188100 0.0 1013109
10:00+26вюв1252100 0.0 10121525
13:00+23вюв1179100 3.1 1011862
16:00+21вюв1290100 5.3 1010417
19:00+17вюв1199100 8.5 101218
22:00+17ююв009992 0.0 101428
19 мая, ср
ср1901:00+17ссв009896 0.5 101216
04:00+16с019762 0.0 101212
07:00+20всв018911 0.0 101292
10:00+27ююв114834 0.0 10111693
13:00+21зюз119099 2.3 101094
16:00+19юв119599 2.9 101017
19:00+17ююв00978 3.6 101212
22:00+17сз009619 0.3 101311
20 мая, чт
чт2001:00+16з11984 0.3 101212
04:00+16зсз119874 0.0 101213
07:00+20сз119086 0.0 1012115
10:00+27ссз0148100 0.0 10111804
13:00+23ю1273100 0.4 1009487
16:00+18св1196100 2.6 101030
19:00+18юз1197100 4.9 101222
22:00+18сз009395 1.2 101311
21 мая, пт
пт2101:00+17з1195100 1.6 101212
04:00+17зсз1196100 0.1 101114
07:00+20сз019034 0.1 101176
10:00+27з1250100 0.0 10101613
13:00+22з147995 0.6 1009234
16:00+18сз1399100 23.8 1007114
19:00+16зюз1499100 47.4 1012116
22:00+16зсз1194100 0.1 101318
22 мая, сб
сб2201:00+16зсз1193100 0.1 101123
04:00+16зсз1197100 0.0 101024
07:00+19зсз1290100 0.0 1011114
10:00+25з225794 0.1 10101259
13:00+24зсз237189 1.3 10081030
16:00+22зсз1386100 2.2 1007759
19:00+18зсз1198100 4.3 101040
22:00+17зсз1299100 0.1 101261